TimeCST,TemperatureF,Dew PointF,Humidity,Sea Level PressureIn,VisibilityMPH,Wind Direction,Wind SpeedMPH,Gust SpeedMPH,PrecipitationIn,Events,Conditions,WindDirDegrees,DateUTC
12:15 AM,33.8,28.4,81,29.95,10.0,SE,10.4,18.4,N/A,,Overcast,140,2012-12-09 06:15:00
12:35 AM,33.8,28.4,81,29.95,10.0,SE,9.2,-,N/A,,Overcast,140,2012-12-09 06:35:00
12:55 AM,33.8,28.4,81,29.96,7.0,SSE,6.9,-,N/A,Snow,Light Snow,150,2012-12-09 06:55:00
1:15 AM,33.8,30.2,87,29.95,2.5,SSE,9.2,-,N/A,Snow,Light Snow,150,2012-12-09 07:15:00
1:35 AM,32.0,30.2,93,29.94,2.5,SE,9.2,-,N/A,Snow,Light Snow,140,2012-12-09 07:35:00
1:55 AM,32.0,30.2,93,29.94,3.0,SE,9.2,-,N/A,Snow,Light Snow,130,2012-12-09 07:55:00
2:15 AM,32.0,30.2,93,29.95,5.0,SE,8.1,-,N/A,,Overcast,130,2012-12-09 08:15:00
2:35 AM,32.0,30.2,93,29.95,5.0,ESE,6.9,-,N/A,,Overcast,110,2012-12-09 08:35:00
2:55 AM,32.0,30.2,93,29.93,7.0,ESE,9.2,-,N/A,,Overcast,120,2012-12-09 08:55:00
3:15 AM,32.0,30.2,93,29.93,7.0,ESE,10.4,-,N/A,,Overcast,120,2012-12-09 09:15:00
3:34 AM,32.0,30.2,93,29.94,7.0,ESE,9.2,-,N/A,,Overcast,120,2012-12-09 09:34:00
3:55 AM,32.0,30.2,93,29.93,7.0,SE,9.2,-,N/A,,Overcast,130,2012-12-09 09:55:00
4:15 AM,32.0,30.2,93,29.94,7.0,SE,8.1,-,N/A,,Overcast,140,2012-12-09 10:15:00
4:35 AM,32.0,30.2,93,29.93,10.0,SE,10.4,-,N/A,,Overcast,130,2012-12-09 10:35:00
4:55 AM,33.8,30.2,87,29.92,4.0,SE,11.5,-,N/A,Snow,Light Snow,130,2012-12-09 10:55:00
5:15 AM,32.0,30.2,93,29.90,4.0,SE,13.8,-,N/A,Snow,Light Snow,130,2012-12-09 11:15:00
5:34 AM,32.0,30.2,93,29.89,4.0,ESE,13.8,-,N/A,Snow,Light Snow,120,2012-12-09 11:34:00
5:55 AM,32.0,30.2,93,29.88,5.0,SE,13.8,19.6,N/A,Snow,Light Snow,130,2012-12-09 11:55:00
6:15 AM,32.0,30.2,93,29.89,5.0,SE,13.8,21.9,N/A,Snow,Light Snow,130,2012-12-09 12:15:00
6:35 AM,32.0,30.2,93,29.89,5.0,ESE,15.0,-,N/A,,Overcast,120,2012-12-09 12:35:00
6:55 AM,32.0,30.2,93,29.88,4.0,ESE,13.8,-,N/A,Snow,Light Snow,120,2012-12-09 12:55:00
7:15 AM,32.0,30.2,93,29.87,2.5,ESE,15.0,-,N/A,Snow,Light Snow,120,2012-12-09 13:15:00
7:35 AM,32.0,30.2,93,29.88,2.0,ESE,16.1,-,N/A,Snow,Light Snow,120,2012-12-09 13:35:00
7:55 AM,32.0,30.2,93,29.88,2.0,SE,11.5,-,N/A,Snow,Light Snow,130,2012-12-09 13:55:00
8:15 AM,32.0,30.2,93,29.88,1.8,ESE,10.4,-,N/A,Snow,Light Snow,120,2012-12-09 14:15:00
8:35 AM,32.0,30.2,93,29.88,0.5,ESE,11.5,-,N/A,Snow,Light Snow,120,2012-12-09 14:35:00
8:55 AM,32.0,30.2,93,29.88,0.5,ESE,11.5,-,0.01,Snow,Snow,120,2012-12-09 14:55:00
9:15 AM,32.0,30.2,93,29.87,0.5,ESE,13.8,-,N/A,Snow,Light Snow,120,2012-12-09 15:15:00
9:35 AM,32.0,32.0,100,29.86,0.8,ESE,13.8,-,0.01,Snow,Light Snow,120,2012-12-09 15:35:00
9:55 AM,32.0,32.0,100,29.86,1.2,ESE,13.8,-,0.02,Snow,Light Snow,120,2012-12-09 15:55:00
10:15 AM,32.0,32.0,100,29.86,1.5,ESE,11.5,-,0.01,Snow,Light Snow,120,2012-12-09 16:15:00
10:35 AM,33.8,32.0,93,29.86,1.8,ESE,11.5,-,0.01,Snow,Light Snow,120,2012-12-09 16:35:00
10:55 AM,33.8,32.0,93,29.83,1.5,ESE,13.8,-,0.01,Snow,Light Snow,120,2012-12-09 16:55:00
11:15 AM,33.8,32.0,93,29.82,1.2,ESE,11.5,-,N/A,Snow,Light Snow,120,2012-12-09 17:15:00
11:34 AM,33.8,32.0,93,29.83,2.0,SE,9.2,-,N/A,Snow,Light Snow,130,2012-12-09 17:34:00
11:55 AM,33.8,32.0,93,29.80,1.5,ESE,11.5,-,N/A,Snow,Light Snow,120,2012-12-09 17:55:00
12:15 PM,33.8,32.0,93,29.79,1.2,ESE,12.7,-,N/A,Snow,Light Snow,120,2012-12-09 18:15:00
12:35 PM,33.8,32.0,93,29.80,2.0,SE,5.8,-,N/A,Snow,Light Snow,140,2012-12-09 18:35:00
12:55 PM,33.8,32.0,93,29.79,1.0,SE,5.8,-,N/A,Snow,Light Snow,140,2012-12-09 18:55:00
1:15 PM,33.8,32.0,93,29.77,0.8,SE,8.1,-,0.01,Snow,Light Snow,130,2012-12-09 19:15:00
1:35 PM,32.0,32.0,100,29.76,1.0,SE,6.9,-,0.01,Snow,Light Snow,130,2012-12-09 19:35:00
1:55 PM,33.8,32.0,93,29.76,1.0,SE,5.8,-,0.02,Snow,Light Snow,130,2012-12-09 19:55:00
2:14 PM,33.8,32.0,93,29.75,1.2,SE,4.6,-,N/A,Snow,Light Snow,130,2012-12-09 20:14:00
2:35 PM,33.8,32.0,93,29.75,1.0,SSE,3.5,-,N/A,Snow,Light Snow,150,2012-12-09 20:35:00
2:55 PM,33.8,32.0,93,29.76,1.0,SE,3.5,-,0.02,Snow,Light Snow,140,2012-12-09 20:55:00
3:15 PM,33.8,32.0,93,29.76,2.0,SE,5.8,-,N/A,Snow,Light Snow,130,2012-12-09 21:15:00
3:35 PM,33.8,32.0,93,29.75,-9999.0,SE,6.9,-,N/A,,Unknown,140,2012-12-09 21:35:00
3:55 PM,33.8,32.0,93,29.76,1.5,SE,3.5,-,N/A,,Overcast,140,2012-12-09 21:55:00
4:15 PM,33.8,32.0,93,29.75,1.0,SE,3.5,-,N/A,,Overcast,140,2012-12-09 22:15:00
4:35 PM,33.8,32.0,93,29.75,1.8,SE,3.5,-,N/A,,Overcast,130,2012-12-09 22:35:00
4:55 PM,33.8,32.0,93,29.76,3.0,South,8.1,-,N/A,,Overcast,190,2012-12-09 22:55:00
5:15 PM,30.2,30.2,100,29.76,5.0,West,12.7,-,N/A,,Overcast,280,2012-12-09 23:15:00
5:35 PM,30.2,30.2,100,29.77,5.0,West,6.9,-,N/A,,Overcast,260,2012-12-09 23:35:00
5:55 PM,30.2,28.4,93,29.76,10.0,West,9.2,-,N/A,,Overcast,280,2012-12-09 23:55:00
6:15 PM,30.2,28.4,93,29.76,10.0,West,6.9,-,N/A,,Overcast,270,2012-12-10 00:15:00
6:35 PM,30.2,28.4,93,29.76,7.0,West,10.4,-,N/A,,Overcast,260,2012-12-10 00:35:00
6:55 PM,28.4,28.4,100,29.76,5.0,West,10.4,16.1,N/A,,Overcast,280,2012-12-10 00:55:00
7:15 PM,28.4,28.4,100,29.77,4.0,West,8.1,-,N/A,,Overcast,270,2012-12-10 01:15:00
7:35 PM,28.4,28.4,100,29.77,4.0,WNW,9.2,-,N/A,,Overcast,290,2012-12-10 01:35:00
7:55 PM,28.4,26.6,93,29.76,2.0,WNW,9.2,-,N/A,,Overcast,290,2012-12-10 01:55:00
8:15 PM,28.4,26.6,93,29.77,2.5,West,5.8,-,N/A,Snow,Light Snow,280,2012-12-10 02:15:00
8:35 PM,28.4,26.6,93,29.76,3.0,West,5.8,-,N/A,Snow,Light Snow,280,2012-12-10 02:35:00
8:55 PM,28.4,26.6,93,29.77,3.0,WNW,8.1,-,N/A,Snow,Light Snow,290,2012-12-10 02:55:00
9:14 PM,28.4,28.4,100,29.76,4.0,WNW,9.2,-,N/A,Snow,Light Snow,300,2012-12-10 03:14:00
9:35 PM,30.2,28.4,93,29.77,3.0,North,10.4,-,N/A,Snow,Light Snow,360,2012-12-10 03:35:00
9:55 PM,28.4,28.4,100,29.78,2.5,North,11.5,20.7,N/A,Snow,Light Snow,350,2012-12-10 03:55:00
10:15 PM,28.4,28.4,100,29.78,4.0,North,12.7,20.7,N/A,Snow,Light Snow,350,2012-12-10 04:15:00
10:55 PM,28.4,26.6,93,29.80,10.0,NNW,11.5,18.4,N/A,,Overcast,340,2012-12-10 04:55:00
11:15 PM,28.4,26.6,93,29.81,10.0,NNW,12.7,19.6,N/A,,Overcast,340,2012-12-10 05:15:00
11:35 PM,28.4,26.6,93,29.81,10.0,NNW,15.0,18.4,N/A,,Overcast,340,2012-12-10 05:35:00
11:55 PM,28.4,26.6,93,29.82,10.0,NNW,16.1,20.7,N/A,,Overcast,330,2012-12-10 05:55:00